Tracking 27423 objects as of 9-Jun-2023
HD Live streaming from Space Station
objects crossing your sky now

STARLINK-1574

Track STARLINK-1574 now!
10-day predictions
STARLINK-1574 is classified as:


NORAD ID: 46062
Int'l Code: 2020-055AM
Perigee: 553.6 km
Apogee: 555.1 km
Inclination: 53.1 °
Period: 95.6 minutes
Semi major axis: 6925 km
RCS: Unknown
Launch date: August 7, 2020
Source: United States (US)
Launch site: AIR FORCE EASTERN TEST RANGE (AFETR)
Your satellite tracking list
Your tracking list is empty




NASA's NSSDC Master Catalog

Two Line Element Set (TLE):
1 46062U 20055AM  23159.78798019  .00025569  00000-0  17298-2 0  9995
2 46062  53.0542 307.8004 0001069  97.3975 262.7135 15.06388155157536
Source of the keplerian elements: AFSPC